Terug naar catalogus

FENGYUN 1C DEB

ActiefPO
NORAD 32357·DEBRIS·🇨🇳 China

Gelanceerd May 10, 1999 vanaf Taiyuan Satellite Launch Center

Loading…

Volgende Passages (komende 24 uur)

TLE

VerouderendSource: Space-Track

Epoch: Sep 9, 2026, 07:21 UTC

1 32357U 99025CZA 26252.30669075  .00002606  00000-0  12941-2 0  9991
2 32357  98.8360 275.8616 0482971 190.1406 237.0142 13.70781747704929

Volg FENGYUN 1C DEB in realtime met AllMySat

Download on the App Store